Time[GMT],salinity[psu](1m),sigma_t[kg/m^3](1m),conductivity[msiemens/cm](1m),temperature[C](1m)
2017-06-28 01:00,30.795,22.532,39.084,15.93
2017-06-28 02:00,30.820,22.593,38.944,15.74
2017-06-28 03:00,30.822,22.599,38.928,15.72
2017-06-28 04:00,30.833,22.592,39.003,15.79
2017-06-28 05:00,30.838,22.583,39.062,15.85
2017-06-28 06:00,30.838,22.585,39.053,15.84
2017-06-28 07:00,30.845,22.606,38.999,15.77
2017-06-28 08:00,30.846,22.631,38.903,15.66
2017-06-28 09:00,30.793,22.535,39.064,15.91
2017-06-28 10:00,30.792,22.526,39.098,15.95
2017-06-28 11:00,30.815,22.580,38.973,15.78
2017-06-28 12:00,30.817,22.624,38.808,15.59
2017-06-28 13:00,30.819,22.603,38.898,15.69
2017-06-28 14:00,30.778,22.490,39.179,16.06
2017-06-28 15:00,30.540,22.292,38.969,16.13
2017-06-28 16:00,30.499,22.176,39.256,16.51
2017-06-28 17:00,30.485,22.124,39.398,16.69
2017-06-28 18:00,30.463,22.039,39.638,16.99
2017-06-28 19:00,30.482,22.046,39.686,17.02
2017-06-28 20:00,30.463,21.997,39.796,17.17
2017-06-28 21:00,30.454,21.967,39.874,17.27
2017-06-28 22:00,30.464,21.982,39.860,17.24
2017-06-28 23:00,30.468,22.010,39.767,17.13
2017-06-29 00:00,30.473,22.016,39.764,17.12
2017-06-29 01:00,30.474,22.021,39.747,17.10
2017-06-29 02:00,30.478,22.030,39.735,17.08
2017-06-29 03:00,30.509,22.067,39.718,17.02
2017-06-29 04:00,30.541,22.082,39.790,17.06
2017-06-29 05:00,30.548,22.092,39.781,17.04
2017-06-29 06:00,30.530,22.129,39.565,16.82
2017-06-29 07:00,30.542,22.181,39.411,16.63
2017-06-29 08:00,30.573,22.268,39.200,16.35
2017-06-29 09:00,30.574,22.329,38.963,16.08
2017-06-29 10:00,30.528,22.263,39.034,16.22
2017-06-29 11:00,30.519,22.251,39.041,16.24
2017-06-29 12:00,30.509,22.217,39.135,16.36
2017-06-29 13:00,30.504,22.197,39.191,16.43
2017-06-29 14:00,30.515,22.202,39.222,16.45
2017-06-29 15:00,30.492,22.172,39.239,16.50
2017-06-29 16:00,30.475,22.119,39.378,16.68
2017-06-29 17:00,30.473,22.087,39.490,16.81
2017-06-29 18:00,30.465,22.054,39.587,16.93
2017-06-29 19:00,30.452,22.014,39.687,17.06
2017-06-29 20:00,30.475,22.034,39.705,17.05
2017-06-29 21:00,30.451,22.020,39.659,17.03
2017-06-29 22:00,30.458,22.051,39.570,16.92
2017-06-29 23:00,30.452,22.055,39.527,16.88
2017-06-30 00:00,30.466,22.071,39.526,16.86
2017-06-30 01:00,30.476,22.092,39.485,16.80
2017-06-30 02:00,30.484,22.117,39.424,16.72
2017-06-30 03:00,30.481,22.130,39.358,16.65
2017-06-30 04:00,30.486,22.149,39.302,16.58
2017-06-30 05:00,30.494,22.170,39.259,16.52
2017-06-30 06:00,,,,
2017-06-30 07:00,30.495,22.193,39.172,16.42
2017-06-30 08:00,,,,
2017-06-30 09:00,30.486,22.215,39.047,16.29
2017-06-30 10:00,30.484,22.207,39.071,16.32
2017-06-30 11:00,30.500,22.244,38.993,16.21
2017-06-30 12:00,,,,
2017-06-30 13:00,30.522,22.274,38.966,16.15
2017-06-30 14:00,30.517,22.268,38.969,16.16
2017-06-30 15:00,30.511,22.252,39.006,16.21
2017-06-30 16:00,30.491,22.203,39.115,16.36
2017-06-30 17:00,30.476,22.131,39.335,16.63
2017-06-30 18:00,30.472,22.103,39.427,16.74
2017-06-30 19:00,30.452,22.085,39.413,16.75
2017-06-30 20:00,30.430,22.070,39.378,16.74
2017-06-30 22:00,30.459,22.058,39.544,16.89
2017-06-30 23:00,30.477,22.077,39.548,16.87
2017-07-01 00:00,30.479,22.111,39.427,16.73
2017-07-01 01:00,30.477,22.114,39.407,16.71
2017-07-01 02:00,30.489,22.104,39.491,16.79
2017-07-01 03:00,30.469,22.091,39.459,16.78
2017-07-01 04:00,30.459,22.090,39.421,16.75
2017-07-01 05:00,30.458,22.094,39.402,16.73
2017-07-01 06:00,30.454,22.100,39.362,16.69
2017-07-01 07:00,30.441,22.104,39.295,16.63
2017-07-01 08:00,30.440,22.124,39.214,16.54
2017-07-01 09:00,30.438,22.138,39.150,16.47
2017-07-01 10:00,30.440,22.146,39.126,16.44
2017-07-01 11:00,30.441,22.149,39.118,16.43
2017-07-01 12:00,30.443,22.137,39.173,16.49
2017-07-01 13:00,30.453,22.127,39.256,16.57
2017-07-01 14:00,30.476,22.110,39.414,16.72
2017-07-01 15:00,30.474,22.072,39.553,16.88
2017-07-01 16:00,30.476,22.023,39.750,17.10
2017-07-01 17:00,30.442,21.958,39.860,17.27
2017-07-01 18:00,30.434,21.952,39.851,17.27
2017-07-01 19:00,30.422,21.931,39.881,17.32
2017-07-01 20:00,30.428,21.956,39.808,17.23
2017-07-01 21:00,30.445,22.006,39.687,17.07
2017-07-01 22:00,30.471,22.049,39.629,16.97
2017-07-01 23:00,,,,
2017-07-02 00:00,30.486,22.102,39.488,16.79
2017-07-02 01:00,30.530,22.238,39.142,16.34
2017-07-02 02:00,30.615,22.294,39.275,16.38
2017-07-02 03:00,,,,
2017-07-02 04:00,30.589,22.281,39.219,16.35
2017-07-02 05:00,30.605,22.336,39.070,16.16
2017-07-02 06:00,30.602,22.315,39.137,16.24
2017-07-02 07:00,30.615,22.347,39.063,16.14
2017-07-02 08:00,30.616,22.355,39.038,16.11
2017-07-02 09:00,30.607,22.343,39.045,16.13
2017-07-02 10:00,30.611,22.367,38.971,16.04
2017-07-02 11:00,30.589,22.336,38.998,16.10
2017-07-02 12:00,30.571,22.310,39.031,16.16
2017-07-02 13:00,30.580,22.289,39.146,16.28
2017-07-02 14:00,30.576,22.252,39.274,16.43
2017-07-02 15:00,30.539,22.138,39.567,16.81
2017-07-02 16:00,30.586,22.103,39.896,17.12
2017-07-02 17:00,30.576,21.981,40.320,17.61
2017-07-02 18:00,30.595,22.014,40.271,17.53
2017-07-02 19:00,30.571,21.979,40.305,17.60
2017-07-02 20:00,30.579,21.983,40.324,17.61
2017-07-02 21:00,30.577,21.982,40.321,17.61
2017-07-02 22:00,30.590,22.071,40.034,17.27
2017-07-02 23:00,30.583,22.128,39.786,17.00
2017-07-03 00:00,30.605,22.182,39.670,16.84
2017-07-03 01:00,30.649,22.270,39.509,16.60
2017-07-03 02:00,30.709,22.350,39.445,16.45
2017-07-03 03:00,30.732,22.390,39.383,16.35
2017-07-03 04:00,30.724,22.404,39.294,16.26
2017-07-03 05:00,30.711,22.395,39.280,16.26
2017-07-03 06:00,30.664,22.305,39.438,16.50
2017-07-03 07:00,30.626,22.255,39.473,16.59
2017-07-03 08:00,30.593,22.200,39.550,16.72
2017-07-03 09:00,30.581,22.193,39.527,16.71
2017-07-03 10:00,30.563,22.164,39.569,16.78
2017-07-03 11:00,30.546,22.135,39.611,16.85
2017-07-03 12:00,30.544,22.130,39.617,16.86
2017-07-03 13:00,30.565,22.160,39.588,16.80
2017-07-03 14:00,30.561,22.102,39.796,17.04
2017-07-03 15:00,30.585,22.123,39.816,17.03
2017-07-03 16:00,30.605,22.087,40.034,17.25
2017-07-03 17:00,30.629,22.033,40.338,17.56
2017-07-03 18:00,30.586,21.960,40.439,17.73
2017-07-03 19:00,30.649,22.044,40.380,17.58
2017-07-03 20:00,30.672,22.049,40.451,17.63
2017-07-03 21:00,30.694,22.118,40.281,17.41
2017-07-03 22:00,30.696,22.136,40.221,17.34
2017-07-03 23:00,30.717,22.150,40.255,17.35
2017-07-04 00:00,30.741,22.254,39.953,16.98
2017-07-04 01:00,30.760,22.270,39.966,16.97
2017-07-04 02:00,30.773,22.372,39.626,16.57
2017-07-04 03:00,30.829,22.494,39.379,16.22
2017-07-04 04:00,30.769,22.439,39.346,16.26
2017-07-04 05:00,,,,
2017-07-04 06:00,30.698,22.262,39.743,16.80
2017-07-04 07:00,30.661,22.188,39.878,17.00
2017-07-04 08:00,30.651,22.169,39.910,17.05
2017-07-04 09:00,30.630,22.160,39.859,17.02
2017-07-04 10:00,30.630,22.157,39.868,17.03
2017-07-04 11:00,30.633,22.150,39.907,17.07
2017-07-04 12:00,30.637,22.135,39.983,17.15
2017-07-04 13:00,30.640,22.065,40.262,17.46
2017-07-04 14:00,30.648,22.053,40.343,17.54
2017-07-04 15:00,30.624,22.032,40.323,17.55
2017-07-04 16:00,30.684,21.920,40.984,18.21
2017-07-04 17:00,30.615,21.968,40.526,17.79
2017-07-04 18:00,30.714,22.147,40.251,17.35
2017-07-04 19:00,30.834,22.164,40.679,17.67
2017-07-04 20:00,30.614,21.493,42.257,19.72
2017-07-04 21:00,30.730,21.548,42.518,19.85
2017-07-04 22:00,30.750,22.102,40.571,17.66
2017-07-04 23:00,30.715,22.037,40.672,17.82
2017-07-05 00:00,30.657,21.561,42.183,19.58
2017-07-05 01:00,30.637,21.604,41.951,19.35
2017-07-05 02:00,30.753,21.777,41.787,19.01
2017-07-05 03:00,30.598,21.624,41.724,19.15
2017-07-05 04:00,30.576,21.647,41.553,18.99
2017-07-05 05:00,30.593,21.682,41.493,18.90
2017-07-05 06:00,30.627,21.784,41.256,18.59
2017-07-05 07:00,30.657,21.812,41.274,18.57
2017-07-05 08:00,30.651,21.891,40.963,18.23
2017-07-05 09:00,30.664,21.893,41.005,18.26
2017-07-05 10:00,30.690,21.983,40.777,17.97
2017-07-05 11:00,30.609,21.980,40.457,17.72
2017-07-05 12:00,30.601,21.840,40.947,18.28
2017-07-05 13:00,30.616,21.812,41.108,18.44
2017-07-05 14:00,30.622,21.766,41.304,18.65
2017-07-05 15:00,30.625,21.807,41.164,18.49
2017-07-05 16:00,30.722,21.850,41.398,18.62
2017-07-05 17:00,30.629,21.652,41.743,19.13
2017-07-05 18:00,30.680,21.505,42.474,19.87
2017-07-05 19:00,30.632,21.448,42.487,19.95
2017-07-05 20:00,30.616,21.550,42.060,19.50
2017-07-05 21:00,30.632,21.422,42.577,20.05
2017-07-05 22:00,30.655,21.560,42.181,19.58
2017-07-05 23:00,30.662,21.625,41.973,19.34
2017-07-06 00:00,30.679,21.710,41.732,19.05
2017-07-06 01:00,30.689,21.748,41.636,18.93
2017-07-06 02:00,,,,
2017-07-06 03:00,30.724,21.883,41.283,18.49
2017-07-06 04:00,30.728,21.869,41.351,18.56
2017-07-06 05:00,30.789,22.008,41.083,18.18
2017-07-06 06:00,30.836,22.039,41.157,18.20
2017-07-06 07:00,30.868,22.102,41.052,18.04
2017-07-06 08:00,30.858,22.099,41.022,18.02
2017-07-06 09:00,30.820,22.099,40.869,17.90
2017-07-06 10:00,30.814,22.123,40.754,17.78
2017-07-06 11:00,30.843,22.188,40.627,17.60
2017-07-06 12:00,30.860,22.275,40.360,17.28
2017-07-06 13:00,30.881,22.270,40.465,17.37
2017-07-06 14:00,30.895,22.253,40.590,17.49
2017-07-06 15:00,30.898,22.208,40.772,17.69
2017-07-06 16:00,30.856,22.068,41.127,18.14
2017-07-06 17:00,30.867,22.060,41.203,18.21
2017-07-06 18:00,30.817,21.919,41.521,18.63
2017-07-06 19:00,30.783,21.835,41.697,18.87
2017-07-06 20:00,30.756,21.777,41.799,19.02
2017-07-06 21:00,,,,
2017-07-06 22:00,30.749,21.784,41.746,18.97
2017-07-06 23:00,,,,
2017-07-07 00:00,30.751,21.838,41.559,18.76
2017-07-07 01:00,30.741,21.862,41.430,18.63
2017-07-07 02:00,30.749,21.944,41.161,18.32
2017-07-07 03:00,30.697,21.926,41.018,18.23
2017-07-07 04:00,30.742,22.034,40.794,17.92
2017-07-07 05:00,30.749,22.094,40.596,17.69
2017-07-07 06:00,30.688,22.012,40.658,17.84
2017-07-07 07:00,30.711,22.082,40.489,17.62
2017-07-07 08:00,30.750,22.168,40.320,17.38
2017-07-07 09:00,30.771,22.233,40.157,17.17
2017-07-07 10:00,30.781,22.264,40.080,17.07
2017-07-07 11:00,30.800,22.276,40.111,17.08
2017-07-07 12:00,30.835,22.296,40.179,17.11
2017-07-07 13:00,30.840,22.288,40.230,17.16
2017-07-07 14:00,30.815,22.244,40.299,17.27
2017-07-07 15:00,30.787,22.163,40.489,17.52
2017-07-07 16:00,30.745,22.086,40.609,17.71
2017-07-07 17:00,30.732,22.057,40.665,17.79
2017-07-07 18:00,,,,
2017-07-07 19:00,30.709,22.033,40.665,17.82
2017-07-07 20:00,30.655,22.010,40.529,17.74
2017-07-07 21:00,,,,
2017-07-07 22:00,30.655,22.058,40.351,17.54
2017-07-07 23:00,30.676,22.076,40.367,17.53
2017-07-08 00:00,30.686,22.082,40.388,17.54
2017-07-08 01:00,,,,
2017-07-08 02:00,30.704,22.107,40.364,17.49
2017-07-08 03:00,,,,
2017-07-08 04:00,30.717,22.136,40.308,17.41
2017-07-08 05:00,30.716,22.147,40.263,17.36
2017-07-08 06:00,30.723,22.170,40.199,17.28
2017-07-08 08:00,30.703,22.144,40.221,17.33
2017-07-08 09:00,30.700,22.132,40.252,17.37
2017-07-08 10:00,30.696,22.117,40.292,17.42
2017-07-08 11:00,30.700,22.118,40.306,17.43
2017-07-08 12:00,30.712,22.116,40.365,17.48
2017-07-08 13:00,30.722,22.104,40.448,17.56
2017-07-08 14:00,30.715,22.064,40.574,17.71
2017-07-08 15:00,30.709,22.040,40.638,17.79
2017-07-08 16:00,30.652,21.913,40.883,18.14
2017-07-08 17:00,30.641,21.854,41.058,18.35
2017-07-08 18:00,30.634,21.855,41.022,18.32
2017-07-08 19:00,,,,
2017-07-08 20:00,30.283,21.541,40.769,18.51
2017-07-08 22:00,30.403,21.628,40.932,18.53
2017-07-09 00:00,30.362,21.612,40.829,18.47
2017-07-09 01:00,30.400,21.665,40.786,18.37
2017-07-09 02:00,30.384,21.653,40.767,18.37
2017-07-09 03:00,30.409,21.684,40.752,18.32
2017-07-09 04:00,30.434,21.700,40.791,18.33
2017-07-09 05:00,30.402,21.651,40.841,18.43
2017-07-09 06:00,30.527,21.745,41.001,18.44
2017-07-09 07:00,30.552,21.764,41.031,18.44
2017-07-09 08:00,30.591,21.818,40.989,18.34
2017-07-09 09:00,30.635,21.892,40.889,18.17
2017-07-09 10:00,30.656,21.902,40.942,18.20
2017-07-09 11:00,30.698,22.000,40.741,17.92
2017-07-09 12:00,30.730,22.065,40.627,17.75
2017-07-09 13:00,30.763,22.096,40.649,17.73
2017-07-09 14:00,30.752,22.059,40.743,17.85
2017-07-09 16:00,30.752,21.962,41.101,18.25
2017-07-09 17:00,30.746,21.931,41.193,18.36
2017-07-09 18:00,30.768,21.870,41.507,18.68
2017-07-09 19:00,30.675,21.727,41.655,18.97
2017-07-09 20:00,30.740,21.785,41.708,18.94
2017-07-09 21:00,30.766,21.785,41.812,19.02
2017-07-09 22:00,30.804,21.773,42.002,19.18
2017-07-09 23:00,30.814,21.848,41.770,18.91
2017-07-10 00:00,30.803,21.931,41.423,18.54
2017-07-10 01:00,30.803,21.951,41.352,18.46
2017-07-10 02:00,30.854,21.948,41.566,18.63
2017-07-10 03:00,30.869,21.969,41.548,18.59
2017-07-10 04:00,30.866,21.977,41.509,18.55
2017-07-10 05:00,30.821,21.950,41.427,18.52
2017-07-10 06:00,30.807,21.932,41.438,18.55
2017-07-10 08:00,30.936,22.062,41.475,18.42
2017-07-10 09:00,30.956,22.131,41.301,18.20
2017-07-10 10:00,30.988,22.215,41.114,17.95
2017-07-10 11:00,30.996,22.243,41.042,17.86
2017-07-10 12:00,30.993,22.278,40.894,17.70
2017-07-10 13:00,30.994,22.243,41.030,17.85
2017-07-10 14:00,31.006,22.152,41.424,18.27
2017-07-10 15:00,30.980,21.938,42.108,19.06
2017-07-10 16:00,30.932,22.002,41.678,18.65
2017-07-10 17:00,30.915,22.004,41.604,18.59
2017-07-10 18:00,30.943,22.028,41.628,18.58
2017-07-10 19:00,30.987,22.030,41.800,18.71
2017-07-10 20:00,,,,
2017-07-10 21:00,30.989,22.092,41.575,18.46
2017-07-10 22:00,30.932,22.029,41.579,18.54
2017-07-10 23:00,30.873,21.997,41.463,18.49
2017-07-11 00:00,30.838,21.973,41.412,18.48
2017-07-11 01:00,30.800,21.941,41.375,18.49
2017-07-11 02:00,30.797,21.877,41.596,18.74
2017-07-11 03:00,30.892,21.967,41.648,18.67
2017-07-11 04:00,30.964,22.069,41.564,18.48
2017-07-11 05:00,30.980,22.132,41.393,18.27
2017-07-11 06:00,31.051,22.349,40.863,17.59
2017-07-11 07:00,31.056,22.416,40.626,17.32
2017-07-11 08:00,31.066,22.482,40.413,17.07
2017-07-11 09:00,31.040,22.421,40.545,17.25
2017-07-11 10:00,,,,
2017-07-11 11:00,31.020,22.410,40.503,17.23
2017-07-11 12:00,31.020,22.419,40.467,17.19
2017-07-11 13:00,31.022,22.460,40.317,17.02
2017-07-11 14:00,31.017,22.412,40.482,17.21
2017-07-11 16:00,30.992,22.327,40.704,17.49
2017-07-11 17:00,31.010,22.289,40.923,17.71
2017-07-11 18:00,30.976,22.126,41.397,18.28
2017-07-11 19:00,30.939,21.991,41.751,18.72
2017-07-11 20:00,30.951,21.955,41.928,18.90
2017-07-11 21:00,30.949,21.952,41.935,18.91
2017-07-11 22:00,30.898,21.860,42.063,19.12
2017-07-11 23:00,30.917,21.922,41.914,18.93
2017-07-12 00:00,30.988,21.981,41.982,18.91
2017-07-12 01:00,30.993,22.051,41.743,18.64
2017-07-12 02:00,31.002,22.112,41.555,18.42
2017-07-12 03:00,31.006,22.116,41.560,18.42
2017-07-12 04:00,30.998,22.138,41.441,18.30
2017-07-12 05:00,31.009,22.135,41.500,18.35
2017-07-12 06:00,31.013,22.169,41.387,18.22
2017-07-12 07:00,31.022,22.222,41.226,18.03
2017-07-12 08:00,31.004,22.138,41.467,18.32
2017-07-12 09:00,31.058,22.333,40.953,17.68
2017-07-12 10:00,31.073,22.417,40.691,17.37
2017-07-12 11:00,31.081,22.423,40.700,17.37
2017-07-12 12:00,31.086,22.416,40.752,17.42
2017-07-12 13:00,31.070,22.304,41.112,17.84
2017-07-12 14:00,31.113,22.349,41.117,17.79
2017-07-12 15:00,30.816,21.897,41.602,18.72
2017-07-12 16:00,31.031,22.098,41.726,18.57
2017-07-12 17:00,30.900,21.941,41.775,18.80
2017-07-12 18:00,30.999,21.834,42.559,19.53
2017-07-12 19:00,30.986,21.748,42.817,19.83
2017-07-12 20:00,30.948,21.783,42.542,19.58
2017-07-12 21:00,30.929,21.687,42.810,19.90
2017-07-12 22:00,30.946,21.735,42.703,19.76
2017-07-12 23:00,30.930,21.774,42.502,19.56
2017-07-13 00:00,30.774,21.589,42.545,19.82
2017-07-13 01:00,30.681,21.536,42.367,19.75
2017-07-13 02:00,30.618,21.460,42.388,19.86
2017-07-13 03:00,30.767,21.546,42.673,19.97
2017-07-13 04:00,30.759,21.542,42.654,19.96
2017-07-13 05:00,30.749,21.547,42.596,19.91
2017-07-13 06:00,30.782,21.600,42.537,19.80
2017-07-13 07:00,30.830,21.695,42.387,19.57
2017-07-13 08:00,30.837,21.711,42.360,19.53
2017-07-13 09:00,30.832,21.752,42.190,19.35
2017-07-13 10:00,30.860,21.837,41.999,19.10
2017-07-13 11:00,30.898,21.925,41.827,18.86
2017-07-13 12:00,30.936,22.035,41.575,18.53
2017-07-13 13:00,30.907,22.103,41.206,18.16
2017-07-13 14:00,30.844,21.955,41.500,18.57
2017-07-13 15:00,30.848,21.906,41.694,18.78
2017-07-13 16:00,30.839,21.924,41.593,18.68
2017-07-13 17:00,30.826,21.902,41.623,18.73
2017-07-13 18:00,30.850,21.977,41.444,18.50
2017-07-13 19:00,30.844,21.977,41.419,18.48
2017-07-13 20:00,30.842,21.981,41.399,18.46
2017-07-13 21:00,30.847,22.030,41.233,18.27
2017-07-13 22:00,30.853,22.051,41.177,18.20
2017-07-13 23:00,30.853,22.076,41.088,18.10
2017-07-14 00:00,30.836,22.046,41.130,18.17
2017-07-14 01:00,30.845,22.096,40.979,17.99
2017-07-14 02:00,,,,
2017-07-14 03:00,30.841,22.100,40.947,17.96
2017-07-14 04:00,30.809,22.047,41.017,18.08
2017-07-14 05:00,,,,
2017-07-14 06:00,,,,
2017-07-14 07:00,30.795,22.061,40.911,17.98
2017-07-14 08:00,30.808,22.099,40.818,17.86
2017-07-14 10:00,30.839,22.104,40.927,17.94
2017-07-14 11:00,30.865,22.181,40.743,17.70
2017-07-14 12:00,30.905,22.247,40.655,17.55
2017-07-14 13:00,30.968,22.402,40.316,17.09
2017-07-14 14:00,30.946,22.357,40.398,17.21
2017-07-14 15:00,30.935,22.344,40.403,17.23
2017-07-14 16:00,30.913,22.288,40.530,17.40
2017-07-14 17:00,30.907,22.317,40.398,17.26
2017-07-14 18:00,30.855,22.161,40.775,17.75
2017-07-14 19:00,30.841,22.117,40.885,17.89
2017-07-14 20:00,30.839,22.092,40.972,17.99
2017-07-14 21:00,30.836,22.070,41.040,18.07
2017-07-14 22:00,30.832,22.057,41.071,18.11
2017-07-14 23:00,30.859,22.114,40.969,17.96
2017-07-15 00:00,30.867,22.156,40.844,17.81
2017-07-15 01:00,30.877,22.164,40.856,17.81
2017-07-15 02:00,30.903,22.208,40.797,17.71
2017-07-15 03:00,30.921,22.247,40.719,17.60
2017-07-15 04:00,30.916,22.269,40.614,17.49
2017-07-15 05:00,30.904,22.262,40.591,17.48
2017-07-15 06:00,30.895,22.246,40.616,17.52
2017-07-15 07:00,30.886,22.232,40.633,17.55
2017-07-15 08:00,30.882,22.227,40.637,17.56
2017-07-15 09:00,30.881,22.231,40.618,17.54
2017-07-15 10:00,30.881,22.235,40.600,17.52
2017-07-15 11:00,30.883,22.249,40.558,17.47
2017-07-15 12:00,30.883,22.246,40.566,17.48
2017-07-15 13:00,30.875,22.212,40.665,17.60
2017-07-15 14:00,30.867,22.149,40.870,17.84
2017-07-15 15:00,30.882,22.177,40.826,17.77
2017-07-15 16:00,30.849,22.078,41.065,18.08
2017-07-15 17:00,30.874,22.104,41.068,18.05
2017-07-15 18:00,30.878,22.040,41.325,18.33
2017-07-15 19:00,30.878,22.008,41.442,18.46
2017-07-15 20:00,30.884,22.005,41.476,18.49
2017-07-15 21:00,30.901,22.025,41.469,18.46
2017-07-15 22:00,30.887,22.036,41.371,18.37
2017-07-15 23:00,30.862,22.126,40.937,17.92
2017-07-16 00:00,30.843,22.197,40.591,17.56
2017-07-16 01:00,30.833,22.194,40.561,17.54
2017-07-16 02:00,30.833,22.187,40.588,17.57
2017-07-16 03:00,30.843,22.175,40.671,17.65
2017-07-16 04:00,30.860,22.175,40.746,17.71
2017-07-16 05:00,30.861,22.152,40.837,17.81
2017-07-16 06:00,30.862,22.155,40.829,17.80
2017-07-16 07:00,30.865,22.171,40.778,17.74
2017-07-16 08:00,30.858,22.199,40.645,17.60
2017-07-16 09:00,30.831,22.228,40.425,17.39
2017-07-16 10:00,30.806,22.234,40.297,17.28
2017-07-16 11:00,30.643,22.243,39.591,16.70
2017-07-16 12:00,29.682,21.794,37.349,15.39
2017-07-16 13:00,29.566,21.604,37.619,15.86
2017-07-16 14:00,29.392,21.316,38.015,16.56
2017-07-16 15:00,29.403,21.326,38.019,16.55
2017-07-16 16:00,29.319,21.066,38.656,17.41
2017-07-16 17:00,29.302,20.812,39.512,18.43
2017-07-16 18:00,29.325,20.808,39.617,18.52
2017-07-16 19:00,29.331,20.634,40.256,19.25
2017-07-16 20:00,29.315,20.599,40.314,19.34
2017-07-16 21:00,29.355,20.731,40.008,18.93
2017-07-16 22:00,29.390,20.855,39.705,18.53
2017-07-16 23:00,29.402,20.883,39.650,18.45
2017-07-17 00:00,29.404,21.028,39.135,17.85
2017-07-17 01:00,29.395,21.026,39.107,17.83
2017-07-17 02:00,29.398,21.078,38.930,17.62
2017-07-17 03:00,29.413,21.106,38.888,17.55
2017-07-17 04:00,29.419,21.135,38.800,17.44
2017-07-17 05:00,29.418,21.165,38.688,17.31
2017-07-17 06:00,29.425,21.189,38.627,17.23
2017-07-17 07:00,29.419,21.207,38.534,17.13
2017-07-17 08:00,29.421,21.206,38.545,17.14
2017-07-17 09:00,29.439,21.248,38.464,17.02
2017-07-17 10:00,29.455,21.267,38.457,16.99
2017-07-17 11:00,29.466,21.252,38.555,17.09
2017-07-17 12:00,29.470,21.214,38.715,17.27
2017-07-17 13:00,29.505,21.201,38.902,17.44
2017-07-17 14:00,29.528,21.191,39.033,17.56
2017-07-17 15:00,29.527,21.130,39.257,17.82
2017-07-17 16:00,29.545,20.990,39.832,18.46
2017-07-17 17:00,29.483,20.943,39.757,18.46
2017-07-17 18:00,29.546,21.008,39.773,18.39
2017-07-17 19:00,29.606,21.034,39.915,18.47
2017-07-17 20:00,29.627,21.016,40.062,18.61
2017-07-17 21:00,29.692,21.112,39.976,18.42
2017-07-17 22:00,29.715,21.207,39.725,18.10
2017-07-17 23:00,29.723,21.253,39.586,17.93
2017-07-18 00:00,,,,
2017-07-18 01:00,29.729,21.384,39.124,17.39
2017-07-18 02:00,29.767,21.492,38.875,17.05
2017-07-18 03:00,29.771,21.467,38.983,17.17
2017-07-18 04:00,29.873,21.646,38.722,16.73
2017-07-18 05:00,29.840,21.578,38.848,16.92
2017-07-18 06:00,29.810,21.516,38.960,17.09
2017-07-18 07:00,29.840,21.550,38.952,17.04
2017-07-18 08:00,29.873,21.601,38.895,16.93
2017-07-18 09:00,29.875,21.602,38.897,16.93
2017-07-18 10:00,29.899,21.611,38.960,16.97
2017-07-18 11:00,29.907,21.617,38.969,16.97
2017-07-18 12:00,29.884,21.561,39.090,17.14
2017-07-18 13:00,29.890,21.535,39.210,17.27
2017-07-18 14:00,29.877,21.444,39.500,17.62
2017-07-18 15:00,29.883,21.382,39.751,17.90
2017-07-18 16:00,29.897,21.351,39.926,18.08
2017-07-18 17:00,29.880,21.227,40.308,18.54
2017-07-18 18:00,29.849,21.208,40.253,18.52
2017-07-18 19:00,29.825,21.104,40.531,18.87
2017-07-18 20:00,29.806,21.114,40.420,18.77
2017-07-18 21:00,29.857,21.183,40.377,18.65
2017-07-18 22:00,29.881,21.217,40.344,18.58
2017-07-18 23:00,29.826,21.255,39.989,18.25
2017-07-19 00:00,29.833,21.275,39.945,18.19
2017-07-19 01:00,29.888,21.443,39.548,17.66
2017-07-19 02:00,29.817,21.249,39.978,18.25
2017-07-19 03:00,29.904,21.434,39.645,17.75
2017-07-19 04:00,29.908,21.449,39.607,17.70
2017-07-19 05:00,29.914,21.394,39.832,17.95
2017-07-19 06:00,30.007,21.436,40.048,18.07
2017-07-19 07:00,30.059,21.417,40.331,18.32
2017-07-19 08:00,30.090,21.401,40.509,18.48
2017-07-19 09:00,30.124,21.430,40.542,18.47
2017-07-19 10:00,30.178,21.522,40.421,18.26
2017-07-19 11:00,30.372,21.624,40.823,18.45
2017-07-19 12:00,30.255,21.515,40.753,18.53
2017-07-19 13:00,30.310,21.484,41.086,18.83
2017-07-19 14:00,30.265,21.345,41.405,19.25
2017-07-19 15:00,30.415,21.432,41.687,19.36
2017-07-19 16:00,30.192,21.090,42.019,20.04
2017-07-19 17:00,30.191,20.939,42.537,20.62
2017-07-19 18:00,30.096,20.962,42.086,20.25
2017-07-19 19:00,30.042,20.996,41.761,19.96
2017-07-19 20:00,29.965,21.101,41.089,19.31
2017-07-19 21:00,29.932,20.981,41.385,19.69
2017-07-19 22:00,29.956,21.002,41.406,19.68
2017-07-19 23:00,29.985,21.107,41.150,19.35
2017-07-20 00:00,29.965,20.968,41.559,19.84
2017-07-20 01:00,30.177,21.251,41.395,19.36
2017-07-20 02:00,30.219,21.235,41.615,19.55
2017-07-20 03:00,30.235,21.128,42.055,20.02
2017-07-20 04:00,30.476,21.369,42.148,19.79
2017-07-20 05:00,30.692,21.519,42.470,19.85
2017-07-20 06:00,30.775,21.636,42.383,19.64
2017-07-20 07:00,30.777,21.748,41.987,19.20
2017-07-20 08:00,30.770,21.825,41.681,18.87
2017-07-20 09:00,30.732,21.882,41.320,18.52
2017-07-20 10:00,30.697,21.935,40.982,18.19
2017-07-20 11:00,30.622,21.904,40.793,18.08
2017-07-20 12:00,30.579,21.775,41.100,18.48
2017-07-20 13:00,30.525,21.658,41.312,18.79
2017-07-20 14:00,30.539,21.604,41.561,19.05
2017-07-20 15:00,30.543,21.484,42.007,19.54
2017-07-20 16:00,30.474,21.432,41.922,19.54
2017-07-20 17:00,30.474,21.432,41.922,19.54
2017-07-20 18:00,30.589,21.191,43.212,20.81
2017-07-20 19:00,30.646,21.216,43.347,20.88
2017-07-20 20:00,30.770,21.468,42.958,20.28
2017-07-20 21:00,30.677,21.399,42.832,20.27